Regional Weather Roundup
Issued by NWS

Home | Current Version | Previous Version | Text Only | Print | Product List | Glossary Off
Versions: 1 2 3 4 5 6 7 8 9 10 11 12 13 14 15 16 17 18 19 20 21 22 23 24 25 26 27 28 29 30 31 32 33 34 35 36 37 38 39 40 41 42 43 44 45 46 47 48 49 50

000
ASUS45 KCYS 260610
RWRWY

WYOMING REGIONAL WEATHER ROUNDUP
NATIONAL WEATHER SERVICE CHEYENNE WY
1200 AM MDT TUE MAY 26 2015

NOTE:  "FAIR" INDICATES FEW OR NO CLOUDS BELOW 12,000 FEET
WITH NO SIGNIFICANT WEATHER AND/OR OBSTRUCTIONS TO VISIBILITY.

WYZ001-260700-
YELLOWSTONE NATIONAL PARK

CITY           SKY/WX    TMP DP  RH WIND       PRES   REMARKS
LK YELLOWSTONE   N/A     38  36  92 CALM      30.09S
6HR MIN TEMP:  37; 6HR MAX TEMP:  45;

W YELLOWSTONE  NOT AVBL

$$
WYZ002>013-054>058-071-098>099-260700-
NORTHERN WYOMING

CITY           SKY/WX    TMP DP  RH WIND       PRES   REMARKS
JACKSON        CLOUDY    46  43  87 N7        30.04S
CODY           FAIR      52  45  76 W5        29.95S
GREYBULL       FAIR      54  48  80 SE5       29.93R
6HR MIN TEMP:  54; 6HR MAX TEMP:  66;

WORLAND        FAIR      51  48  89 SE9       29.93S
6HR MIN TEMP:  51; 6HR MAX TEMP:  62;

SHERIDAN       FAIR      47  44  90 SW7       29.92F
6HR MIN TEMP:  45; 6HR MAX TEMP:  63;

BUFFALO        FAIR      48  45  89 S8        29.96F
6HR MIN TEMP:  47; 6HR MAX TEMP:  58;

GILLETTE       FAIR      45  44  97 S5        29.95S
6HR MIN TEMP:  42; 6HR MAX TEMP:  59;

HULETT         FAIR      46  45  93 SE3       29.97S
NEWCASTLE      CLOUDY    52  46  82 SE5       29.97R

$$
WYZ014>020-022>026-101>103-260700-
CENTRAL WYOMING

CITY           SKY/WX    TMP DP  RH WIND       PRES   REMARKS
BIG PINEY      FAIR      43  39  86 E6        30.06S
6HR MIN TEMP:  42; 6HR MAX TEMP:  54;

PINEDALE       FAIR      41  41 100 CALM      30.08S
DUBOIS         LGT RAIN  41  37  87 NW8       30.06S
LANDER         FAIR      48  44  86 CALM      29.98S
6HR MIN TEMP:  48; 6HR MAX TEMP:  59; 6HR PCP:  0.01;

RIVERTON       FAIR      49  43  80 SW3       29.99S
6HR MIN TEMP:  49; 6HR MAX TEMP:  61;

CASPER         MOCLDY    48  45  89 SW3       30.00R
6HR MIN TEMP:  47; 6HR MAX TEMP:  60; 6HR PCP:  0.01;

DOUGLAS        FAIR      48  45  89 CALM      29.99S
6HR MIN TEMP:  48; 6HR MAX TEMP:  60;


$$
WYZ021-027>030-104>119-260700-
SOUTHERN WYOMING

CITY           SKY/WX    TMP DP  RH WIND       PRES   REMARKS
EVANSTON       FAIR      44  39  82 S3        30.08F
6HR MIN TEMP:  42; 6HR MAX TEMP:  49; 6HR PCP:  0.04;

KEMMERER       FAIR      41  37  87 CALM      30.08F
FORT BRIDGER   CLEAR     45  39  81 W8        30.10F
ROCK SPRINGS   FAIR      44  40  85 SW8       30.06S
6HR MIN TEMP:  43; 6HR MAX TEMP:  48; 6HR PCP: TRACE;

DIXON          FAIR      44  41  89 E3        30.10S
RAWLINS        FAIR      42  39  89 W3        30.06S
6HR MIN TEMP:  41; 6HR MAX TEMP:  50; 6HR PCP:  0.02;

SARATOGA       MOCLDY    41  39  93 S8        30.08S
LARAMIE        FAIR      40  37  89 W3        30.07S
6HR MIN TEMP:  38; 6HR MAX TEMP:  48; 6HR PCP:  0.05;

CHEYENNE       FAIR      45  39  79 W5        30.03S
6HR MIN TEMP:  45; 6HR MAX TEMP:  56;

TORRINGTON     FAIR      49  48  97 NW5       29.96S
6HR MIN TEMP:  48; 6HR MAX TEMP:  54; 6HR PCP:  0.09;

PINE BLUFFS    FAIR      43  43 100 W3        30.01S

$$



USA.gov is the U.S. government's official web portal to all federal, state and local government web resources and services.